Avoca, PA

5:20 PM EST on December 05, 2019 (GMT -0500)
Wilkes-Barre-Scranton International

Weather History for KAVP - November, 2019

Change the Weather History Date:

Sunday, November 17, 2019

  Actual Average Record
Temperature  
Mean Temperature 30 °F 41 °F  
Max Temperature 40 °F 49 °F 68 °F (1928)
Min Temperature 21 °F 33 °F 15 °F (1933)
Degree Days  
Heating Degree Days 34 24  
Month to date heating degree days 467 364  
Since 1 July heating degree days 789 967  
Cooling Degree Days 0 0  
Month to date cooling degree days 0 0  
Year to date cooling degree days 846 580  
Moisture  
Dew Point 16 °F    
Average Humidity 54    
Maximum Humidity 75    
Minimum Humidity 24    
Precipitation  
Precipitation T in 0.11 in 2.18 in (1935)
Month to date precipitation 0.75 1.75  
Year to date precipitation 45.98 34.19  
Sea Level Pressure  
Sea Level Pressure 30.25 in    
Wind  
Wind Speed 5 mph ()    
Max Wind Speed 12 mph    
Max Gust Speed 18 mph    
Visibility 9.9 miles    
Events      
T = Trace of Precipitation, MM = Missing Value Source: Averaged Metar Reports

Daily Weather History Graph

Daily Weather History Graph

Search for Another Location

Airport or City:

Astronomy

Nov. 17, 2019 Rise Set
Actual Time 6:53 AM EST 4:41 PM EST
Civil Twilight 6:23 AM EST 5:11 PM EST
Nautical Twilight 5:49 AM EST 5:45 PM EST
Astronomical Twilight 5:17 AM EST 6:17 PM EST
Moon 9:15 PM EST (11/17) 11:38 AM EST (11/17)
Length of Visible Light 10h 48m
Length of Day
9h 48m
Waning Gibbous, 73% of the Moon is Illuminated
Nov 17
Waning Gibbous
Nov 19
Last Quarter
Nov 26
New
Dec 4
First Quarter
Dec 12
Full

Hourly Weather History & Observations

Time (EST) Temp. Windchill Dew Point Humidity Pressure Visibility Wind Dir Wind Speed Gust Speed Precip Events Conditions
12:54 AM 25.0 °F 19.3 °F -0.0 °F 34% 30.41 in 10.0 mi ENE 4.6 mph - N/A   Clear
1:54 AM 25.0 °F 20.7 °F -0.0 °F 34% 30.41 in 10.0 mi East 3.5 mph - N/A   Clear
2:54 AM 25.0 °F 19.3 °F 1.9 °F 37% 30.40 in 10.0 mi East 4.6 mph - N/A   Clear
3:54 AM 24.1 °F 18.2 °F 3.0 °F 40% 30.39 in 10.0 mi ENE 4.6 mph - N/A   Clear
4:54 AM 21.9 °F 14.5 °F 5.0 °F 48% 30.40 in 10.0 mi ENE 5.8 mph - N/A   Clear
5:54 AM 23.0 °F 14.7 °F 3.0 °F 42% 30.40 in 10.0 mi NE 6.9 mph - N/A   Clear
6:54 AM 21.9 °F 12.5 °F 3.0 °F 44% 30.38 in 10.0 mi NE 8.1 mph - N/A   Clear
7:54 AM 25.0 °F 18.1 °F 5.0 °F 43% 30.38 in 10.0 mi NE 5.8 mph - N/A   Overcast
8:54 AM 28.9 °F 21.1 °F 8.1 °F 41% 30.37 in 10.0 mi NE 8.1 mph - N/A   Overcast
9:54 AM 34.0 °F 28.0 °F 12.9 °F 42% 30.34 in 10.0 mi NE 6.9 mph - N/A   Clear
10:54 AM 37.0 °F 31.6 °F 19.0 °F 48% 30.32 in 10.0 mi NE 6.9 mph - N/A   Mostly Cloudy
11:54 AM 39.0 °F 33.4 °F 19.9 °F 46% 30.28 in 10.0 mi East 8.1 mph - N/A   Overcast
12:54 PM 39.0 °F 34.8 °F 21.9 °F 50% 30.26 in 10.0 mi ESE 5.8 mph - N/A   Overcast
1:54 PM 39.9 °F 35.1 °F 23.0 °F 51% 30.22 in 10.0 mi East 6.9 mph - N/A   Overcast
2:54 PM 39.9 °F 35.1 °F 24.1 °F 53% 30.20 in 10.0 mi East 6.9 mph - N/A   Overcast
3:54 PM 37.9 °F 33.5 °F 25.0 °F 60% 30.18 in 10.0 mi East 5.8 mph - N/A   Overcast
4:54 PM 37.0 °F 31.0 °F 26.1 °F 65% 30.17 in 10.0 mi ENE 8.1 mph - N/A   Overcast
5:54 PM 36.0 °F 31.1 °F 26.1 °F 67% 30.17 in 10.0 mi East 5.8 mph - N/A   Overcast
6:54 PM 36.0 °F 29.6 °F 25.0 °F 64% 30.14 in 10.0 mi East 8.1 mph - N/A   Overcast
7:54 PM 35.1 °F - 25.0 °F 67% 30.13 in 10.0 mi North - - N/A   Overcast
7:55 PM 35.1 °F - 25.0 °F 67% 30.10 in 10.0 mi North - - N/A   Overcast
8:54 PM 34.0 °F 27.2 °F 27.0 °F 75% 30.12 in 8.0 mi East 8.1 mph - 0.00 in   Overcast
9:54 PM 33.1 °F 26.9 °F 26.1 °F 75% 30.08 in 9.0 mi ENE 6.9 mph - 0.00 in   Overcast
10:54 PM 33.1 °F 25.5 °F 26.1 °F 75% 30.06 in 10.0 mi NE 9.2 mph - N/A   Overcast
11:54 PM 33.1 °F 28.7 °F 26.1 °F 75% 30.04 in 10.0 mi ENE 4.6 mph - N/A   Overcast